This is the latest recevied weather packets stored in our database for station/object DG2HSI-11. If no packets are shown the sender has not sent any weather packets the latest 10 day(s).
| Time | Temp. | Humidity | Pressure | Rain* | Wind** | Luminosity | Snow |
|---|---|---|---|---|---|---|---|
| 1777654641 | 13.89° C | 58% | 1027.2 hPa | - | - | - | - |
| 1777653441 | 13.89° C | 58% | 1027.4 hPa | - | - | - | - |
| 1777652240 | 13.89° C | 57% | 1027.6 hPa | - | - | - | - |
| 1777651039 | 14.44° C | 57% | 1027.7 hPa | - | - | - | - |
| 1777649838 | 14.44° C | 57% | 1027.9 hPa | - | - | - | - |
| 1777648637 | 13.89° C | 57% | 1028.2 hPa | - | - | - | - |
| 1777647437 | 14.44° C | 57% | 1028.3 hPa | - | - | - | - |
| 1777646236 | 14.44° C | 57% | 1028.5 hPa | - | - | - | - |
| 1777645035 | 14.44° C | 57% | 1028.6 hPa | - | - | - | - |
| 1777643821 | 14.44° C | 57% | 1028.7 hPa | - | - | - | - |
| 1777642620 | 13.89° C | 57% | 1029 hPa | - | - | - | - |
| 1777641420 | 13.89° C | 57% | 1029.2 hPa | - | - | - | - |
| 1777640219 | 13.89° C | 57% | 1029.5 hPa | - | - | - | - |
| 1777639018 | 13.89° C | 57% | 1029.7 hPa | - | - | - | - |
| 1777637817 | 13.89° C | 57% | 1029.8 hPa | - | - | - | - |
| 1777636616 | 14.44° C | 57% | 1029.9 hPa | - | - | - | - |
| 1777635416 | 14.44° C | 57% | 1030.1 hPa | - | - | - | - |
| 1777634215 | 13.89° C | 57% | 1030.3 hPa | - | - | - | - |
| 1777633014 | 15° C | 55% | 1030.5 hPa | - | - | - | - |
| 1777631813 | 14.44° C | 56% | 1030.6 hPa | - | - | - | - |
| 1777630612 | 15° C | 54% | 1030.6 hPa | - | - | - | - |
| 1777629412 | 15.56° C | 54% | 1030.8 hPa | - | - | - | - |
| 1777628211 | 17.78° C | 55% | 1031 hPa | - | - | - | - |
| 1777628139 | 15.56° C | 54% | 1031.1 hPa | - | - | - | - |
| 1777628104 | 17.78° C | 54% | 1031 hPa | - | - | - | - |
* Rain since midnight (hover to see other rain measurements)
** Current wind speed in m/s (hover to see current wind gust speed)